Dewpoint
-11 -12 -12 -12 -12 -12 -12 -11 -10 -9 -9 -8 -8 -8 -9 -9 -9 -9 -9 -10 -10 -10 -10 -10 -10 -10 -11 -11 -11 -11 -11 -11 -11 -12 -12 -12 -12 -13 -13 -14 -15 -16 -15 -15 -16 -16 -16 -16 -17 -17 -17 -16 -16 -16 -16 -16 -15 -15 -14 -14 -14 -13 -13
-9 -10 -10 -11 -11 -11 -11 -11 -11 -10 -9 -9 -8 -8 -8 -9 -9 -9 -9 -9 -10 -10 -10 -10 -10 -10 -10 -11 -11 -11 -11 -11 -11 -12 -12 -12 -12 -13 -13 -13 -14 -15 -15 -15 -15 -16 -16 -16 -17 -17 -17 -17 -17 -17 -16 -16 -16 -15 -15 -14 -14 -13 -13
-8 -8 -9 -9 -9 -10 -10 -10 -10 -10 -9 -9 -9 -8 -8 -8 -9 -9 -9 -9 -9 -9 -10 -10 -10 -10 -10 -11 -11 -11 -11 -11 -11 -12 -12 -12 -12 -12 -13 -13 -14 -14 -14 -14 -15 -15 -15 -16 -16 -17 -17 -17 -17 -17 -17 -17 -16 -16 -16 -15 -14 -14 -14
-9 -9 -8 -8 -8 -8 -9 -9 -10 -10 -10 -9 -9 -9 -8 -8 -8 -8 -9 -9 -9 -9 -9 -10 -10 -9 -10 -10 -11 -10 -10 -11 -11 -11 -12 -12 -12 -12 -12 -12 -13 -14 -14 -14 -14 -14 -15 -15 -16 -16 -17 -17 -18 -18 -18 -18 -17 -17 -17 -16 -15 -15 -15
-11 -10 -10 -10 -9 -9 -9 -9 -9 -9 -10 -10 -10 -9 -9 -9 -8 -8 -8 -8 -8 -9 -9 -9 -9 -9 -9 -10 -10 -10 -10 -10 -11 -11 -11 -11 -12 -12 -12 -12 -13 -13 -13 -14 -14 -14 -14 -15 -15 -16 -16 -17 -18 -18 -18 -18 -18 -18 -17 -17 -17 -16 -16
-12 -12 -12 -11 -11 -11 -10 -10 -9 -9 -9 -9 -10 -10 -10 -10 -9 -9 -9 -9 -9 -9 -9 -9 -9 -9 -9 -10 -10 -10 -10 -10 -10 -11 -11 -11 -11 -12 -12 -12 -13 -13 -13 -14 -14 -14 -14 -15 -15 -15 -16 -16 -17 -17 -18 -18 -18 -18 -18 -18 -18 -18 -18
-13 -13 -13 -12 -12 -12 -12 -11 -11 -10 -10 -9 -9 -9 -9 -10 -10 -10 -9 -9 -9 -9 -9 -9 -9 -9 -9 -10 -10 -10 -10 -10 -10 -10 -11 -11 -11 -11 -12 -12 -12 -13 -13 -14 -14 -14 -14 -14 -14 -15 -15 -15 -16 -17 -17 -17 -18 -18 -18 -18 -18 -18 -18
-14 -14 -13 -13 -13 -13 -13 -12 -12 -11 -11 -10 -10 -10 -9 -9 -9 -9 -9 -9 -9 -9 -9 -9 -9 -9 -9 -9 -9 -10 -10 -10 -10 -10 -11 -11 -11 -11 -12 -12 -12 -12 -13 -13 -13 -14 -14 -14 -14 -15 -15 -15 -15 -16 -16 -16 -17 -17 -17 -17 -17 -17 -17
-14 -14 -14 -14 -14 -13 -13 -13 -13 -12 -12 -11 -11 -11 -10 -10 -9 -9 -9 -9 -9 -9 -9 -9 -9 -9 -9 -9 -9 -10 -10 -10 -10 -10 -11 -11 -11 -11 -12 -12 -12 -12 -13 -13 -13 -13 -14 -14 -14 -14 -15 -15 -15 -15 -15 -15 -16 -16 -16 -16 -16 -16 -16
-15 -15 -14 -14 -14 -14 -14 -13 -13 -13 -13 -12 -12 -11 -11 -11 -11 -10 -10 -10 -10 -10 -10 -9 -9 -9 -9 -9 -10 -10 -10 -10 -10 -11 -11 -11 -11 -11 -11 -12 -12 -12 -12 -13 -13 -13 -14 -14 -14 -14 -14 -14 -14 -14 -14 -15 -15 -15 -16 -16 -16 -16 -15
-15 -15 -15 -15 -15 -14 -14 -14 -14 -13 -13 -13 -13 -12 -12 -12 -12 -11 -11 -11 -11 -11 -10 -10 -10 -10 -10 -10 -10 -10 -10 -10 -11 -11 -11 -11 -11 -11 -11 -12 -12 -12 -12 -12 -13 -13 -13 -14 -14 -14 -14 -14 -14 -14 -14 -14 -15 -15 -15 -15 -16 -15 -15
-16 -16 -16 -15 -15 -15 -15 -15 -14 -14 -14 -14 -13 -13 -13 -13 -13 -12 -12 -12 -12 -11 -11 -11 -11 -11 -11 -11 -11 -11 -11 -11 -11 -11 -11 -11 -11 -11 -11 -12 -12 -12 -12 -12 -12 -13 -13 -13 -13 -13 -13 -13 -14 -14 -14 -14 -14 -15 -15 -15 -15 -15 -15
-17 -17 -16 -16 -16 -16 -16 -15 -15 -15 -15 -14 -14 -14 -14 -14 -13 -13 -13 -13 -12 -12 -12 -12 -12 -12 -12 -11 -11 -11 -11 -11 -11 -11 -12 -12 -12 -12 -12 -12 -12 -12 -12 -12 -12 -12 -13 -13 -13 -13 -13 -13 -13 -14 -14 -14 -14 -15 -15 -15 -15 -15 -15
-19 -18 -17 -17 -17 -16 -16 -16 -16 -16 -16 -15 -15 -15 -15 -15 -14 -14 -14 -14 -14 -13 -13 -13 -13 -13 -12 -12 -12 -12 -12 -12 -12 -12 -12 -12 -12 -12 -12 -12 -12 -12 -12 -12 -13 -13 -13 -13 -13 -13 -13 -13 -13 -13 -13 -14 -14 -14 -15 -15 -15 -14 -15
-23 -22 -20 -19 -18 -18 -17 -17 -17 -17 -16 -16 -16 -16 -16 -16 -16 -15 -15 -15 -15 -14 -14 -14 -14 -13 -13 -13 -13 -13 -12 -12 -12 -12 -12 -13 -12 -12 -12 -12 -12 -12 -12 -13 -13 -13 -13 -13 -13 -13 -13 -13 -13 -13 -13 -13 -14 -14 -14 -14 -14 -14 -15
-28 -27 -26 -25 -23 -22 -21 -20 -19 -18 -17 -17 -17 -16 -16 -17 -17 -17 -17 -16 -16 -16 -15 -15 -15 -15 -14 -14 -14 -14 -13 -13 -13 -13 -13 -13 -13 -13 -13 -13 -13 -13 -13 -13 -13 -13 -13 -13 -13 -13 -13 -13 -13 -13 -13 -14 -14 -14 -14 -15 -15 -15 -15
-31 -31 -31 -30 -30 -29 -28 -26 -25 -23 -21 -20 -18 -17 -17 -17 -17 -17 -17 -17 -17 -17 -17 -16 -16 -16 -16 -16 -15 -15 -14 -14 -14 -14 -14 -13 -13 -13 -13 -13 -13 -13 -13 -13 -13 -13 -13 -13 -13 -13 -13 -14 -14 -14 -14 -14 -14 -14 -15 -15 -15 -15 -15
-32 -32 -32 -32 -32 -32 -32 -32 -31 -30 -29 -27 -24 -22 -20 -20 -21 -21 -21 -21 -20 -20 -19 -18 -18 -17 -17 -16 -16 -16 -15 -15 -15 -15 -14 -14 -14 -14 -14 -14 -14 -14 -14 -14 -13 -13 -13 -13 -13 -14 -14 -14 -14 -14 -14 -14 -15 -15 -15 -15 -15 -15 -16
-30 -30 -30 -30 -30 -30 -30 -31 -31 -31 -31 -31 -30 -28 -25 -24 -25 -27 -27 -25 -24 -24 -24 -23 -22 -21 -20 -19 -18 -17 -16 -16 -16 -15 -15 -15 -15 -15 -15 -15 -15 -15 -15 -15 -14 -14 -14 -14 -14 -14 -14 -14 -14 -14 -14 -15 -15 -15 -15 -15 -15 -15 -16
-29 -30 -29 -29 -29 -29 -29 -29 -29 -29 -29 -29 -30 -29 -25 -23 -24 -26 -24 -22 -22 -23 -25 -27 -28 -28 -27 -25 -23 -21 -19 -17 -16 -16 -16 -15 -15 -15 -16 -16 -15 -15 -15 -15 -15 -15 -15 -14 -14 -14 -14 -15 -15 -15 -15 -15 -15 -15 -15 -15 -15 -16 -16
-29 -29 -29 -28 -28 -28 -28 -28 -28 -28 -28 -28 -28 -28 -25 -23 -23 -23 -21 -20 -21 -22 -24 -26 -28 -29 -29 -30 -30 -28 -25 -22 -18 -17 -16 -16 -16 -16 -16 -16 -16 -16 -15 -15 -15 -15 -15 -15 -15 -15 -15 -15 -15 -15 -15 -16 -16 -16 -16 -16 -16 -16 -16
-27 -28 -28 -27 -27 -27 -27 -27 -27 -27 -28 -28 -28 -28 -26 -24 -22 -21 -21 -21 -22 -24 -25 -26 -26 -27 -27 -27 -25 -23 -22 -21 -19 -18 -17 -17 -17 -17 -17 -16 -16 -16 -16 -16 -16 -15 -15 -15 -15 -15 -15 -15 -16 -16 -16 -16 -16 -16 -17 -17 -17 -17 -17
-26 -27 -28 -28 -28 -27 -27 -27 -27 -26 -27 -27 -27 -27 -27 -25 -22 -21 -22 -23 -24 -25 -25 -25 -25 -26 -25 -24 -22 -21 -21 -21 -20 -20 -19 -18 -17 -17 -17 -17 -17 -16 -16 -16 -16 -16 -16 -16 -15 -15 -15 -16 -16 -16 -16 -16 -16 -16 -17 -18 -18 -18 -17
-27 -27 -28 -28 -28 -28 -27 -26 -26 -26 -26 -26 -25 -26 -26 -25 -23 -23 -24 -25 -25 -25 -25 -25 -24 -25 -24 -24 -23 -24 -24 -24 -23 -22 -22 -22 -21 -19 -18 -17 -17 -17 -17 -17 -17 -17 -17 -16 -16 -16 -16 -16 -16 -16 -16 -16 -16 -17 -17 -17 -18 -18 -18
-26 -26 -26 -27 -27 -27 -26 -25 -26 -27 -27 -26 -26 -26 -26 -24 -24 -24 -25 -25 -25 -25 -25 -25 -24 -25 -25 -25 -25 -25 -25 -25 -25 -24 -24 -24 -24 -23 -21 -20 -19 -19 -18 -18 -18 -18 -18 -18 -17 -17 -17 -16 -16 -16 -16 -16 -17 -17 -17 -17 -17 -18 -17
-25 -25 -25 -26 -25 -25 -25 -25 -27 -28 -28 -27 -27 -26 -25 -25 -25 -25 -25 -25 -25 -26 -26 -26 -26 -25 -25 -25 -25 -25 -25 -25 -25 -25 -24 -24 -23 -23 -23 -23 -23 -22 -21 -21 -20 -19 -19 -19 -19 -19 -18 -18 -18 -17 -17 -17 -17 -17 -17 -17 -17 -17 -17
-24 -25 -25 -25 -25 -25 -25 -26 -27 -27 -27 -27 -26 -25 -25 -25 -25 -25 -26 -26 -26 -26 -26 -26 -26 -26 -26 -26 -26 -26 -26 -25 -25 -25 -25 -25 -24 -23 -23 -23 -23 -23 -23 -23 -23 -22 -21 -20 -20 -19 -19 -19 -19 -18 -18 -18 -18 -18 -18 -18 -18 -18 -18
-25 -25 -25 -25 -25 -25 -25 -26 -26 -27 -26 -26 -25 -25 -25 -26 -26 -26 -26 -26 -27 -27 -27 -28 -28 -29 -29 -29 -29 -28 -28 -27 -26 -26 -25 -25 -25 -24 -24 -23 -23 -22 -22 -22 -22 -22 -22 -22 -22 -21 -20 -20 -19 -19 -19 -18 -18 -18 -18 -18 -18 -18 -18
-25 -26 -25 -25 -25 -26 -26 -26 -26 -26 -27 -26 -26 -26 -26 -27 -27 -27 -27 -28 -29 -29 -30 -31 -32 -32 -32 -32 -32 -31 -30 -29 -28 -27 -27 -26 -26 -25 -25 -24 -24 -24 -23 -23 -22 -22 -22 -23 -23 -23 -22 -21 -21 -21 -20 -20 -19 -19 -19 -19 -19 -19 -19
-26 -26 -26 -26 -26 -26 -26 -26 -27 -28 -28 -27 -26 -27 -28 -28 -28 -29 -29 -31 -32 -33 -33 -33 -33 -33 -33 -32 -32 -32 -32 -31 -30 -30 -29 -28 -28 -27 -26 -26 -25 -25 -25 -24 -24 -23 -23 -23 -23 -23 -23 -22 -22 -21 -21 -21 -21 -20 -20 -19 -19 -19 -19
-26 -26 -26 -26 -26 -27 -27 -28 -29 -31 -30 -28 -27 -28 -29 -30 -30 -31 -33 -34 -34 -34 -35 -35 -34 -34 -34 -34 -33 -33 -33 -33 -32 -32 -31 -31 -30 -29 -29 -28 -28 -27 -26 -26 -25 -25 -25 -25 -24 -24 -24 -23 -22 -22 -22 -21 -21 -21 -20 -20 -20 -20 -20
-26 -26 -26 -27 -28 -29 -30 -31 -31 -32 -31 -29 -29 -30 -32 -33 -34 -34 -35 -35 -35 -35 -36 -35 -35 -35 -35 -35 -35 -35 -35 -34 -34 -34 -34 -33 -33 -32 -31 -31 -30 -29 -29 -28 -28 -27 -26 -26 -26 -25 -25 -24 -23 -23 -22 -22 -22 -21 -21 -20 -20 -20 -20
-27 -27 -29 -30 -31 -31 -31 -31 -31 -32 -32 -31 -32 -33 -34 -35 -35 -35 -36 -36 -36 -36 -36 -36 -36 -36 -36 -36 -36 -36 -36 -36 -36 -36 -36 -36 -35 -34 -34 -33 -32 -32 -31 -31 -30 -29 -28 -28 -27 -27 -26 -26 -25 -24 -24 -23 -23 -22 -21 -21 -21 -21 -21
-29 -30 -31 -32 -31 -31 -31 -32 -32 -33 -34 -34 -35 -36 -36 -36 -36 -36 -36 -36 -36 -36 -36 -36 -36 -36 -36 -36 -36 -36 -37 -37 -37 -37 -37 -37 -37 -36 -35 -34 -33 -33 -33 -32 -32 -32 -31 -30 -29 -29 -28 -27 -26 -26 -25 -24 -24 -24 -23 -22 -22 -22 -21
-31 -32 -31 -31 -31 -32 -33 -34 -35 -35 -36 -36 -36 -37 -37 -37 -37 -37 -37 -37 -37 -37 -37 -37 -37 -37 -37 -37 -37 -37 -37 -37 -37 -37 -37 -37 -37 -37 -36 -35 -34 -34 -33 -33 -33 -33 -33 -32 -31 -30 -30 -29 -28 -27 -27 -26 -25 -25 -24 -24 -23 -22 -22
-32 -31 -31 -32 -32 -34 -35 -36 -36 -36 -36 -36 -37 -37 -37 -37 -37 -38 -38 -37 -37 -37 -38 -38 -38 -38 -37 -37 -37 -37 -37 -37 -36 -36 -37 -37 -37 -37 -37 -36 -36 -35 -35 -34 -33 -33 -33 -33 -33 -32 -31 -30 -29 -28 -28 -27 -27 -26 -26 -25 -24 -24 -23
Wind_Speed
22 22 23 24 24 25 25 26 26 26 26 27 29 30 31 31 32 34 35 35 36 37 38 39 40 40 39 40 41 42 42 43 44 45 47 47 48 49 49 50 49 51 55 55 50 47 44 40 38 37 38 39 39 39 39 40 41 42 42 43 42 42 42
22 23 23 24 24 25 25 26 26 26 26 27 29 29 30 31 31 33 34 35 36 37 38 39 40 39 39 40 41 42 42 43 44 45 47 47 48 50 50 50 50 50 53 55 53 49 48 45 42 41 41 40 40 40 40 40 42 42 43 42 42 42 42
23 24 24 24 25 25 25 26 26 26 27 28 28 28 29 30 30 31 33 35 36 37 37 39 40 40 40 41 42 42 42 43 44 46 47 48 48 49 50 49 49 50 51 53 52 50 49 48 45 44 44 42 41 41 40 41 43 43 43 43 43 43 43
23 24 24 25 25 25 25 26 26 26 27 28 28 29 29 29 30 31 32 34 35 35 37 38 40 40 40 41 42 43 43 43 45 46 46 48 48 49 49 49 49 49 50 51 51 50 49 48 46 45 44 43 42 41 41 42 43 43 43 43 43 44 43
24 24 24 25 25 25 25 25 25 26 26 27 27 29 30 30 31 31 32 33 34 35 36 38 39 40 40 42 43 44 44 45 45 46 46 47 48 48 49 49 49 49 49 50 50 50 48 46 46 44 43 42 41 41 41 42 42 43 43 43 43 43 42
24 24 24 25 24 24 24 24 24 25 25 26 26 27 28 29 31 32 33 34 35 35 36 37 39 40 40 42 44 45 45 45 45 45 46 47 47 47 48 48 48 48 48 48 49 49 47 47 47 45 44 43 42 41 42 42 42 43 43 43 43 43 42
24 24 24 25 25 25 25 25 25 25 25 25 25 26 27 28 29 30 32 34 35 36 37 37 38 39 40 42 44 44 44 45 45 46 46 47 47 47 47 47 48 47 47 47 47 47 47 48 48 46 45 45 43 41 41 42 43 45 45 45 45 44 44
25 25 24 24 25 25 25 25 25 25 25 25 25 25 26 27 28 29 30 32 33 35 36 37 38 39 39 40 42 43 43 44 45 45 46 47 46 46 47 47 48 47 46 46 46 46 47 47 47 48 47 45 43 42 42 43 43 44 45 46 46 45 45
24 24 24 24 24 24 24 24 24 24 24 24 24 24 25 26 26 27 28 30 31 32 34 36 37 38 39 39 39 40 41 42 43 44 45 46 46 46 46 47 47 47 46 46 45 46 46 45 46 48 48 48 48 47 46 44 43 44 44 44 44 45 45
23 23 23 23 23 23 23 23 23 22 22 21 21 22 23 24 25 26 26 27 28 30 31 32 34 36 37 37 38 38 39 40 41 42 43 44 45 45 45 46 46 46 47 47 46 47 47 45 47 50 50 51 51 49 47 45 44 45 44 43 44 45 46
22 21 22 22 22 22 21 20 20 20 19 19 20 20 21 23 24 24 25 25 26 27 29 29 30 31 32 33 35 36 36 37 37 39 40 41 42 44 45 45 46 46 47 46 47 48 47 46 48 50 49 49 50 49 47 46 46 45 45 45 46 47 47
20 19 20 20 19 19 19 18 18 17 16 16 16 17 18 20 22 23 24 24 25 26 27 28 29 29 30 30 30 31 32 33 34 35 36 38 40 41 43 45 46 46 47 46 47 48 48 48 49 49 47 47 49 48 46 45 45 45 45 46 47 48 48
18 18 18 19 18 18 17 17 16 15 14 13 12 13 16 19 20 22 23 24 25 26 27 27 28 29 30 30 29 28 27 28 29 30 31 33 36 38 41 43 45 46 46 46 47 48 48 48 48 47 47 47 47 46 44 44 45 46 46 47 47 47 47
17 17 17 18 18 17 17 17 17 15 15 13 11 13 18 20 19 21 22 22 24 25 26 26 27 27 28 29 29 28 27 26 26 26 26 27 30 34 37 39 42 44 45 46 47 48 49 48 47 46 46 45 45 44 43 43 43 44 44 44 43 43 44
18 18 18 18 19 18 17 17 17 16 16 15 12 14 20 22 20 21 21 21 22 23 23 24 25 26 27 27 27 27 27 26 26 26 26 26 27 28 31 34 37 40 42 45 46 48 48 47 47 46 45 44 44 43 42 40 39 37 37 37 39 41 43
18 19 19 19 20 20 18 18 18 16 16 16 14 16 22 24 22 22 21 21 21 22 22 22 22 23 24 25 26 26 26 25 25 25 25 26 27 27 28 29 31 32 35 39 42 44 45 45 45 46 45 45 44 43 42 39 38 37 36 37 40 42 43
19 20 21 20 20 21 20 19 18 17 16 16 15 16 21 24 23 23 22 22 23 23 23 22 21 21 22 23 23 23 23 23 22 23 24 25 25 26 27 28 28 28 29 31 33 36 38 40 41 43 44 45 45 44 42 41 41 41 41 41 42 42 42
19 19 20 20 20 20 20 19 18 17 16 16 15 16 19 22 24 23 23 23 23 23 23 23 21 21 21 22 22 21 20 19 17 18 21 23 24 25 26 27 27 26 27 28 28 30 32 34 36 37 39 41 43 44 43 43 43 43 41 42 43 43 42
18 18 18 18 19 19 19 18 17 17 16 15 15 16 17 20 23 23 22 22 22 23 23 22 22 21 20 21 21 20 20 18 16 15 17 19 22 25 27 27 26 26 26 26 27 28 30 32 34 35 36 38 40 42 43 43 42 42 43 43 43 43 41
17 17 17 17 17 17 18 18 17 16 16 16 16 15 16 19 21 20 20 21 22 24 25 24 23 22 20 20 20 19 19 19 17 16 16 17 19 22 25 26 26 27 27 26 26 26 27 28 31 33 35 36 36 39 41 41 39 40 42 42 42 42 42
16 15 15 16 16 16 16 17 16 16 15 15 15 15 15 17 18 17 19 21 23 25 27 26 24 23 21 21 19 18 18 17 16 17 18 18 17 18 18 19 21 25 27 27 27 26 26 27 28 29 32 35 36 37 39 40 39 37 38 38 38 39 41
16 15 15 15 16 15 15 16 17 17 16 16 16 16 15 16 16 16 18 23 25 24 24 24 23 23 22 21 19 17 15 15 15 18 20 19 19 20 19 17 16 18 22 26 29 29 28 28 28 28 30 33 35 35 37 40 41 38 37 36 35 35 37
16 16 16 16 16 16 17 18 19 20 20 20 19 19 18 17 16 16 18 23 24 23 22 22 22 22 21 18 17 16 16 16 18 21 22 23 24 26 25 23 20 18 18 20 24 29 32 32 30 30 30 31 33 34 36 39 41 40 38 37 36 34 34
17 18 18 19 19 18 20 22 22 22 23 23 22 22 20 18 16 18 21 23 23 22 22 22 22 22 22 20 20 21 21 21 21 23 24 25 27 28 29 29 27 25 22 20 19 23 29 32 33 33 32 31 30 31 32 36 40 40 39 38 36 35 34
17 19 21 22 23 23 24 25 25 24 24 24 23 22 20 17 17 21 23 23 23 24 24 24 24 25 25 25 24 24 24 23 22 22 23 25 26 28 30 32 32 30 28 25 21 19 21 25 28 31 32 32 31 30 31 34 38 41 41 39 38 37 37
18 20 22 24 26 27 27 27 28 27 26 25 24 22 20 19 20 23 24 24 26 27 27 27 28 28 29 28 28 28 27 26 25 23 23 24 24 25 27 29 31 32 31 29 27 24 21 20 20 22 24 26 28 31 33 34 36 39 41 41 41 41 41
18 18 22 26 27 28 28 28 28 27 26 25 23 21 21 23 23 26 28 28 30 31 31 32 32 31 32 31 29 28 27 27 26 26 25 25 24 24 25 26 27 28 28 28 28 26 25 24 22 21 20 21 23 27 30 32 34 37 39 41 42 42 43
16 16 22 26 27 28 28 27 28 27 25 23 20 19 22 23 22 25 29 30 31 33 33 32 32 31 30 29 27 25 24 24 24 24 24 24 24 24 24 24 25 25 26 27 27 26 26 26 25 25 24 24 24 25 26 28 31 33 36 38 40 41 42
13 16 23 25 26 26 25 25 27 25 21 18 17 17 20 19 18 23 29 30 30 31 30 29 28 27 26 25 24 23 22 21 20 20 20 20 21 22 22 23 23 24 24 24 25 25 25 24 24 24 24 24 26 28 28 28 28 30 32 35 38 40 41
11 16 21 24 24 22 20 21 24 21 16 15 15 16 19 18 18 24 30 29 28 28 27 26 25 23 22 22 21 21 20 20 20 19 19 18 18 18 20 20 21 21 22 22 22 22 22 22 22 22 22 23 24 26 28 29 29 28 30 33 35 37 38
15 17 20 21 20 18 17 19 20 17 13 12 13 17 21 21 20 24 27 27 26 25 24 23 21 20 20 19 18 18 18 18 18 19 19 19 18 17 17 18 19 20 21 21 21 21 20 19 19 20 21 22 24 24 25 28 29 30 31 33 34 35 35
18 17 17 17 15 15 16 18 18 16 13 12 14 20 23 22 21 24 25 24 23 22 20 19 18 18 18 18 17 17 17 17 17 17 17 17 18 17 16 16 17 18 19 20 20 21 20 19 18 18 18 20 23 25 25 26 28 31 32 33 33 34 34
17 15 14 13 13 14 16 17 18 17 15 15 18 21 23 22 22 23 23 22 21 19 18 17 17 17 17 17 17 17 17 17 17 16 16 16 16 16 16 16 16 17 17 18 19 19 20 20 19 18 17 18 20 23 25 25 26 29 32 33 34 35 36
14 14 13 14 15 16 17 17 18 18 18 19 20 21 21 21 20 18 18 19 19 18 18 17 16 16 16 16 16 16 16 17 16 16 16 16 15 15 15 15 15 15 15 16 17 18 18 19 19 18 18 17 17 19 22 24 24 25 29 34 38 39 37
12 14 15 16 17 17 18 17 17 17 18 20 21 21 19 19 18 16 16 18 18 17 17 17 17 16 16 16 16 16 16 16 16 16 16 16 16 16 16 15 15 14 14 14 15 16 16 17 17 18 17 17 17 17 18 21 23 24 25 29 33 36 34
12 14 15 16 16 16 16 17 17 17 17 18 19 19 19 19 19 19 19 19 18 17 17 16 16 16 16 16 16 16 16 16 16 16 16 16 16 16 16 16 16 16 16 16 16 15 16 16 16 16 16 17 17 17 17 18 19 21 24 25 27 29 31
Wind_Direction
292 291 290 289 287 287 285 283 281 277 274 271 270 269 270 270 270 269 269 269 268 267 266 265 266 266 267 266 265 266 266 265 265 263 261 260 258 256 255 252 248 248 254 258 258 257 258 257 255 253 251 250 249 248 247 246 247 246 246 246 245 245 245
292 291 290 289 288 287 286 285 283 280 277 273 271 271 271 271 271 270 270 270 269 268 267 267 267 268 268 266 265 266 266 265 264 262 261 260 258 257 257 254 251 249 252 257 258 257 257 256 253 251 251 250 248 248 247 247 247 246 246 246 246 245 244
292 291 289 288 287 286 285 284 283 281 279 276 274 272 271 271 272 272 271 271 271 271 270 269 269 269 269 267 265 266 266 265 263 261 260 260 259 258 258 256 253 251 252 255 257 257 257 257 254 252 252 251 250 248 247 246 247 247 247 247 246 245 244
294 292 290 289 287 285 283 282 281 280 278 278 277 275 273 272 271 271 270 271 271 272 272 270 269 270 270 267 265 267 267 265 263 261 259 259 259 258 258 257 254 253 253 254 256 257 257 257 256 255 254 252 249 246 244 244 245 246 246 246 245 245 244
298 295 293 291 289 286 284 282 280 278 277 276 276 275 275 273 272 270 270 270 270 271 271 270 270 271 271 268 266 267 267 265 263 262 260 259 259 258 258 256 254 253 253 252 253 255 255 256 256 255 254 251 248 245 243 242 242 244 244 243 243 243 242
302 299 296 294 291 289 287 284 281 280 278 276 274 273 273 273 273 272 271 270 269 269 269 269 269 269 270 268 266 267 267 266 265 263 261 261 260 259 257 255 254 252 250 248 250 252 252 253 254 253 252 251 248 245 243 241 239 240 240 240 239 239 239
303 301 299 296 294 292 289 287 285 283 281 279 278 276 274 274 273 273 272 271 270 268 267 267 266 267 268 267 267 268 268 267 266 264 262 262 262 260 256 254 253 251 248 247 248 249 249 250 252 251 251 251 249 245 243 240 238 236 235 235 236 236 236
304 302 300 297 296 294 292 290 288 286 285 283 282 280 278 276 275 274 273 272 271 270 268 266 265 264 265 266 266 267 268 267 266 264 262 262 261 258 255 253 252 250 247 246 246 247 248 248 249 249 249 248 245 241 238 237 236 236 237 237 237 238 238
305 303 301 298 296 294 293 292 290 289 289 288 286 285 283 281 279 277 276 275 273 271 269 268 266 264 264 264 265 266 267 267 266 264 262 262 260 257 254 252 251 248 246 245 244 244 245 244 245 247 246 244 243 242 241 239 237 237 238 239 240 241 242
306 304 302 300 298 296 294 293 293 292 291 291 289 288 286 284 283 281 280 278 276 274 272 270 269 267 266 265 266 266 266 266 266 264 262 262 260 256 253 251 248 246 245 243 242 243 243 240 241 245 245 245 247 248 246 241 238 237 236 236 237 239 241
310 308 306 304 303 302 300 298 297 295 295 293 291 290 290 287 285 282 280 279 278 277 275 273 272 271 270 269 268 267 267 267 267 266 264 263 260 257 255 252 248 246 245 242 241 243 242 238 240 244 245 246 248 247 244 241 239 239 237 234 234 237 239
317 315 313 311 311 310 309 308 305 304 303 301 303 304 297 288 284 282 280 280 279 279 278 277 275 273 271 271 271 271 271 270 268 267 266 264 262 258 256 255 252 250 247 244 242 243 242 241 243 244 242 244 247 247 244 240 239 239 238 236 238 239 241
322 321 319 317 317 317 317 317 315 315 312 307 318 322 301 286 285 285 284 283 281 280 279 279 278 277 274 272 271 271 271 272 272 270 268 265 263 259 256 255 254 253 251 249 246 245 245 246 246 244 243 246 249 247 244 240 238 238 238 237 240 244 246
327 327 324 322 321 322 323 322 320 323 318 310 321 322 300 288 289 290 289 288 286 283 281 280 279 279 278 276 273 271 269 269 270 271 271 269 265 261 258 255 254 253 251 250 247 246 248 250 249 248 250 252 250 249 248 246 243 242 242 242 247 250 249
331 329 328 326 325 324 326 326 323 324 321 314 315 311 298 294 295 295 294 293 291 289 286 284 283 281 279 278 276 274 272 269 268 268 269 269 267 264 262 259 256 254 252 250 248 247 250 252 251 252 253 253 252 253 254 255 254 254 254 253 252 249 245
332 330 329 329 327 326 328 328 325 323 320 315 313 305 298 297 299 298 297 296 295 294 291 289 289 287 285 283 280 278 276 273 271 269 267 266 266 266 266 264 261 259 257 255 252 251 253 254 254 253 254 253 253 254 255 253 251 250 248 245 242 241 242
333 331 330 329 327 326 328 328 326 325 320 315 313 308 302 301 301 301 300 299 297 296 294 294 295 294 292 289 286 285 283 280 278 275 271 269 269 269 269 265 263 263 262 259 256 255 255 256 255 254 254 253 253 253 252 247 244 242 240 237 237 239 241
333 332 329 329 327 325 326 327 326 324 322 318 314 311 308 306 306 306 306 304 300 297 294 294 294 293 291 290 289 288 287 287 286 283 279 276 275 275 272 268 265 266 264 260 257 253 251 252 253 253 253 253 253 253 251 246 244 244 241 237 238 240 241
330 330 329 327 325 324 324 325 324 324 323 321 318 316 315 312 310 311 313 312 309 303 299 297 295 293 290 289 288 286 285 284 282 282 283 282 280 277 275 274 274 273 268 263 261 256 252 249 248 249 250 251 251 252 252 251 249 246 243 242 242 241 238
328 329 329 325 323 323 322 322 325 327 326 324 322 320 320 317 316 321 324 320 313 307 304 305 305 303 300 296 291 287 282 275 270 272 275 278 284 287 284 280 279 276 273 271 268 263 258 253 248 247 247 246 245 245 248 251 251 247 246 246 244 241 239
329 331 330 325 322 322 323 325 329 330 329 329 326 325 326 325 326 331 326 312 305 304 305 308 310 309 307 304 300 299 293 284 279 276 272 274 284 289 283 276 274 274 273 272 270 266 262 256 251 249 248 247 243 240 240 244 246 246 247 247 245 242 242
329 330 329 324 321 322 326 331 333 333 332 331 328 330 332 330 333 334 318 304 302 306 308 310 310 309 308 310 314 317 313 302 287 275 267 266 270 269 265 263 264 266 268 269 267 266 264 259 254 251 249 249 247 242 238 239 243 245 247 248 248 246 245
327 328 326 320 319 324 331 335 335 333 332 332 331 331 329 329 334 331 313 304 307 311 311 310 310 308 308 309 307 301 292 283 274 267 263 260 261 264 266 266 263 260 263 266 265 263 262 261 259 256 253 251 249 246 240 238 240 245 247 248 250 249 247
327 326 323 319 320 328 334 335 333 331 332 333 333 330 328 329 328 318 309 309 312 312 311 312 311 308 306 304 299 293 288 283 279 275 272 267 263 264 267 270 269 267 265 264 261 259 259 259 258 258 257 256 253 251 247 242 241 244 247 248 249 249 247
329 328 325 324 327 332 335 333 330 331 333 333 333 333 332 332 324 314 311 312 310 308 308 308 306 305 304 303 302 300 298 294 288 283 280 277 272 268 267 270 272 274 273 270 266 260 258 259 259 259 260 260 259 258 254 247 241 240 241 243 245 245 245
335 335 328 325 327 330 332 330 328 330 332 332 338 341 336 330 322 313 308 304 302 302 303 302 302 303 303 304 304 302 301 298 295 290 285 282 279 274 272 272 273 275 277 277 274 269 262 259 261 262 262 259 258 258 256 251 244 239 236 237 237 238 239
344 338 323 320 323 325 328 327 325 328 333 338 348 345 328 320 318 310 303 302 303 305 307 308 308 308 306 305 303 300 296 293 290 289 286 283 281 279 277 275 275 276 277 278 277 275 268 260 257 258 258 255 254 255 254 254 251 246 240 237 235 234 235
348 330 313 315 320 322 326 326 324 330 340 349 354 339 319 319 321 310 303 306 309 310 312 312 312 310 308 307 305 301 296 291 287 285 284 281 280 278 276 275 275 275 275 275 275 275 273 269 262 257 254 252 251 251 251 252 253 251 247 244 238 234 234
339 315 308 313 318 322 326 325 323 331 345 353 352 332 314 320 326 311 305 310 313 314 314 314 312 312 311 311 312 311 308 305 300 294 289 284 280 277 275 274 273 273 273 274 275 274 275 273 268 259 253 251 251 250 248 250 251 250 250 248 244 241 239
315 307 308 313 318 322 323 318 320 330 344 355 352 325 305 310 317 309 308 314 317 317 318 318 319 320 320 320 321 320 319 319 316 312 308 302 295 288 283 279 278 277 276 276 276 277 277 275 271 263 253 246 248 250 250 248 247 248 249 248 247 246 244
313 311 311 315 319 320 316 316 323 332 343 353 342 314 306 314 317 312 314 321 322 322 324 326 328 329 330 331 331 330 330 329 326 323 320 316 311 305 298 291 286 284 282 280 279 279 279 278 275 269 256 244 241 245 249 248 245 244 246 248 248 248 246
320 318 317 318 321 321 319 324 330 333 333 331 317 310 316 324 323 320 325 328 327 328 332 335 338 340 340 341 342 340 339 338 335 333 331 327 322 318 312 307 301 294 290 288 287 285 283 282 279 275 266 252 241 238 241 245 245 243 243 245 247 247 246
324 325 326 327 328 327 326 328 330 329 324 319 315 319 327 332 331 331 332 331 331 336 340 343 346 347 347 348 348 347 345 344 344 342 340 338 334 328 322 317 311 305 299 296 293 291 289 287 284 279 274 266 253 244 240 241 243 245 244 243 244 246 246
330 332 335 336 335 333 333 332 331 329 327 326 328 332 336 336 336 334 332 334 341 346 348 349 349 348 347 346 346 346 344 344 345 345 343 341 339 335 330 324 318 314 311 307 302 298 295 293 290 285 280 274 267 257 249 244 243 244 246 244 241 239 238
339 337 339 341 340 339 338 336 335 336 337 336 336 339 340 340 340 340 342 348 352 354 354 353 351 348 346 343 339 339 338 337 339 340 341 340 338 336 335 331 327 324 321 318 315 311 307 302 298 293 288 281 273 266 261 255 250 247 247 246 242 238 236
344 342 342 342 343 343 341 341 342 344 345 342 341 342 346 348 350 353 356 357 356 356 358 356 351 349 347 342 338 335 331 329 330 331 331 334 334 334 334 334 333 330 325 321 319 318 315 312 306 301 297 289 279 270 264 262 259 254 250 248 246 246 245
Height
1438 1438 1437 1436 1435 1434 1434 1433 1432 1432 1432 1432 1431 1432 1432 1433 1433 1433 1432 1433 1434 1434 1435 1435 1435 1435 1436 1438 1438 1438 1439 1439 1440 1441 1442 1443 1443 1444 1444 1446 1447 1445 1441 1441 1444 1446 1448 1450 1453 1454 1455 1457 1458 1460 1462 1464 1465 1466 1467 1469 1471 1473 1475
1434 1434 1433 1432 1431 1430 1430 1429 1429 1428 1428 1427 1427 1427 1427 1428 1428 1427 1427 1428 1428 1428 1429 1430 1429 1429 1430 1432 1432 1432 1433 1433 1434 1435 1435 1436 1437 1437 1438 1439 1441 1440 1438 1436 1438 1441 1442 1444 1446 1447 1449 1451 1452 1454 1457 1458 1459 1460 1461 1463 1465 1467 1468
1430 1430 1429 1428 1427 1426 1426 1425 1425 1424 1424 1423 1423 1423 1423 1423 1423 1422 1422 1422 1422 1423 1424 1424 1423 1423 1424 1426 1426 1426 1426 1427 1428 1429 1429 1429 1430 1431 1431 1433 1435 1435 1434 1433 1433 1435 1436 1438 1439 1441 1443 1445 1447 1449 1451 1452 1452 1454 1456 1457 1459 1460 1462
1427 1426 1425 1424 1423 1422 1422 1421 1421 1420 1420 1420 1419 1419 1418 1418 1418 1418 1417 1417 1418 1418 1419 1419 1418 1417 1419 1420 1420 1419 1420 1421 1422 1422 1423 1423 1424 1425 1425 1427 1428 1429 1429 1429 1429 1429 1431 1432 1434 1435 1437 1439 1441 1443 1444 1446 1447 1448 1450 1451 1452 1454 1456
1422 1422 1421 1420 1419 1418 1418 1417 1417 1416 1416 1416 1415 1415 1414 1414 1413 1413 1413 1412 1412 1413 1413 1413 1412 1412 1414 1414 1414 1413 1413 1414 1415 1416 1417 1417 1418 1418 1419 1421 1422 1423 1424 1424 1424 1424 1425 1427 1428 1429 1431 1432 1434 1436 1438 1440 1441 1442 1443 1445 1446 1448 1450
1418 1417 1417 1416 1415 1414 1414 1413 1413 1412 1412 1411 1411 1411 1410 1409 1409 1408 1408 1408 1407 1408 1408 1408 1407 1407 1408 1408 1407 1407 1407 1408 1409 1410 1410 1411 1411 1413 1414 1415 1416 1417 1418 1418 1418 1419 1420 1421 1421 1423 1424 1425 1427 1429 1431 1433 1434 1436 1437 1438 1440 1442 1444
1414 1414 1413 1412 1411 1410 1409 1409 1408 1408 1408 1407 1407 1406 1406 1405 1404 1404 1403 1403 1402 1402 1402 1402 1402 1402 1402 1402 1402 1401 1402 1402 1403 1403 1404 1405 1406 1407 1408 1409 1409 1411 1412 1412 1413 1413 1414 1415 1415 1417 1418 1419 1422 1423 1425 1426 1428 1429 1430 1431 1433 1436 1438
1410 1409 1409 1408 1407 1406 1406 1405 1405 1404 1404 1403 1402 1402 1401 1400 1400 1399 1398 1398 1398 1398 1397 1397 1397 1396 1396 1396 1396 1396 1396 1397 1397 1398 1398 1399 1400 1401 1402 1403 1404 1405 1405 1406 1407 1407 1408 1409 1410 1411 1412 1414 1415 1416 1417 1418 1421 1422 1424 1426 1428 1430 1433
1407 1406 1405 1404 1404 1403 1402 1401 1401 1400 1400 1399 1398 1397 1397 1396 1395 1394 1394 1393 1393 1393 1392 1392 1392 1391 1391 1391 1391 1391 1391 1391 1391 1392 1392 1393 1394 1395 1396 1397 1398 1399 1399 1400 1401 1401 1402 1404 1404 1404 1405 1406 1406 1407 1409 1413 1416 1417 1419 1422 1424 1426 1427
1404 1403 1401 1400 1400 1399 1399 1398 1398 1397 1396 1396 1395 1394 1393 1392 1391 1390 1389 1388 1388 1387 1387 1387 1387 1386 1386 1385 1385 1385 1385 1385 1385 1386 1386 1387 1388 1389 1390 1391 1391 1392 1393 1393 1394 1394 1396 1397 1397 1396 1397 1398 1399 1402 1405 1408 1409 1411 1414 1417 1418 1419 1419
1401 1400 1399 1397 1397 1396 1396 1395 1395 1394 1394 1393 1392 1391 1389 1388 1387 1386 1385 1384 1383 1382 1382 1382 1382 1381 1381 1380 1380 1379 1379 1379 1379 1380 1380 1381 1382 1383 1383 1384 1385 1385 1386 1387 1387 1388 1389 1390 1389 1390 1391 1393 1394 1397 1399 1401 1403 1405 1408 1409 1409 1410 1411
1399 1398 1396 1395 1395 1394 1393 1393 1392 1391 1391 1390 1389 1388 1386 1384 1382 1381 1380 1380 1379 1378 1378 1377 1377 1377 1376 1376 1375 1375 1374 1374 1374 1374 1375 1375 1376 1377 1377 1378 1378 1379 1380 1381 1381 1382 1383 1383 1383 1385 1387 1387 1388 1390 1394 1396 1398 1399 1400 1401 1402 1403 1403
1397 1396 1395 1393 1392 1391 1391 1390 1389 1388 1387 1386 1386 1384 1382 1380 1378 1377 1377 1376 1376 1375 1374 1374 1373 1372 1372 1371 1371 1370 1370 1369 1369 1369 1370 1370 1371 1371 1371 1372 1372 1373 1374 1375 1376 1376 1376 1377 1378 1380 1381 1381 1383 1386 1388 1390 1391 1392 1394 1395 1396 1396 1398
1395 1394 1392 1391 1389 1388 1388 1386 1385 1385 1384 1383 1383 1381 1378 1376 1376 1375 1374 1374 1373 1372 1371 1370 1369 1368 1367 1367 1367 1367 1366 1366 1365 1365 1365 1366 1366 1366 1366 1366 1367 1368 1369 1369 1370 1370 1370 1371 1373 1374 1376 1378 1379 1381 1382 1384 1385 1387 1389 1390 1391 1393 1395
1392 1391 1389 1388 1386 1385 1384 1383 1382 1382 1380 1380 1380 1378 1374 1373 1373 1373 1372 1371 1370 1369 1368 1367 1366 1364 1364 1363 1363 1363 1363 1362 1362 1362 1361 1361 1361 1361 1361 1361 1362 1362 1363 1364 1365 1365 1365 1367 1369 1370 1372 1373 1374 1375 1377 1379 1381 1383 1385 1386 1387 1388 1389
1390 1387 1386 1385 1383 1382 1382 1381 1380 1379 1378 1377 1377 1375 1371 1370 1370 1369 1368 1368 1366 1365 1364 1363 1362 1361 1360 1360 1359 1359 1360 1359 1359 1358 1357 1357 1357 1357 1357 1356 1357 1358 1359 1359 1360 1360 1361 1362 1363 1365 1367 1368 1369 1371 1373 1376 1377 1379 1380 1380 1381 1381 1382
1387 1385 1383 1382 1381 1380 1379 1379 1378 1377 1376 1375 1374 1372 1369 1367 1366 1366 1365 1364 1363 1362 1361 1360 1360 1359 1357 1357 1356 1356 1356 1356 1356 1355 1354 1353 1352 1352 1352 1352 1352 1353 1354 1355 1356 1356 1357 1357 1359 1360 1361 1362 1363 1365 1368 1370 1370 1371 1373 1374 1375 1375 1376
1385 1384 1382 1380 1379 1378 1378 1377 1376 1375 1374 1373 1371 1370 1367 1364 1363 1363 1362 1361 1360 1358 1357 1357 1357 1357 1355 1354 1354 1354 1353 1354 1353 1352 1351 1350 1349 1349 1348 1347 1348 1349 1349 1350 1351 1352 1352 1353 1354 1355 1356 1357 1358 1359 1361 1363 1363 1365 1367 1368 1369 1370 1372
1383 1382 1381 1379 1378 1377 1376 1375 1374 1373 1372 1371 1370 1368 1366 1363 1361 1360 1359 1357 1356 1355 1354 1354 1354 1354 1353 1352 1351 1351 1351 1351 1351 1350 1349 1348 1347 1345 1344 1344 1345 1345 1345 1345 1346 1346 1347 1348 1350 1351 1351 1352 1353 1353 1354 1355 1358 1360 1361 1362 1364 1366 1368
1382 1381 1380 1378 1377 1376 1374 1373 1372 1371 1370 1369 1367 1366 1364 1362 1360 1358 1357 1355 1353 1352 1351 1351 1351 1350 1350 1350 1349 1348 1348 1348 1348 1347 1346 1345 1345 1343 1341 1341 1341 1340 1340 1341 1341 1342 1342 1343 1344 1346 1347 1347 1348 1348 1348 1349 1352 1355 1355 1357 1359 1361 1361
1380 1380 1379 1377 1376 1374 1373 1371 1370 1369 1368 1367 1365 1364 1363 1360 1359 1358 1356 1353 1351 1350 1349 1348 1348 1347 1347 1346 1346 1345 1345 1345 1345 1344 1343 1342 1341 1339 1337 1336 1336 1336 1336 1336 1336 1337 1338 1338 1339 1340 1341 1342 1343 1344 1344 1344 1346 1349 1350 1352 1354 1355 1356
1379 1378 1377 1376 1374 1373 1371 1370 1368 1367 1366 1365 1363 1362 1361 1359 1358 1357 1354 1350 1349 1348 1347 1346 1345 1344 1344 1343 1343 1343 1343 1342 1341 1339 1338 1338 1336 1333 1332 1333 1332 1332 1332 1332 1332 1333 1333 1334 1334 1335 1337 1337 1338 1340 1340 1340 1341 1343 1345 1347 1349 1350 1351
1377 1376 1375 1374 1372 1371 1369 1368 1366 1364 1363 1362 1360 1359 1358 1357 1356 1354 1351 1348 1346 1346 1345 1344 1343 1342 1341 1341 1340 1339 1338 1337 1336 1335 1334 1333 1331 1329 1329 1330 1329 1329 1329 1328 1328 1328 1328 1329 1330 1331 1332 1333 1333 1335 1336 1336 1336 1338 1340 1342 1344 1345 1346
1374 1373 1372 1371 1369 1368 1367 1365 1363 1362 1360 1359 1357 1356 1355 1354 1353 1350 1347 1346 1344 1343 1342 1341 1340 1339 1338 1337 1336 1335 1334 1333 1332 1331 1330 1329 1328 1327 1326 1325 1325 1325 1325 1325 1325 1324 1324 1325 1326 1326 1327 1328 1330 1331 1332 1333 1332 1333 1334 1337 1339 1341 1342
1372 1370 1369 1367 1366 1365 1363 1362 1360 1359 1358 1356 1355 1353 1352 1351 1349 1346 1344 1343 1342 1340 1340 1338 1337 1336 1334 1333 1332 1331 1330 1329 1328 1328 1326 1325 1325 1324 1323 1322 1321 1321 1321 1321 1321 1321 1321 1321 1321 1322 1323 1324 1326 1327 1327 1328 1328 1328 1330 1332 1334 1336 1338
1369 1367 1365 1364 1363 1361 1360 1359 1357 1356 1355 1354 1352 1350 1348 1347 1346 1343 1341 1340 1339 1338 1337 1335 1334 1332 1330 1329 1328 1326 1325 1324 1324 1323 1322 1321 1321 1320 1319 1318 1317 1317 1316 1316 1316 1317 1317 1317 1317 1318 1318 1320 1321 1321 1322 1323 1324 1324 1325 1327 1329 1330 1332
1367 1365 1363 1362 1360 1359 1358 1356 1354 1354 1353 1351 1350 1348 1345 1344 1343 1339 1336 1336 1335 1333 1332 1331 1329 1328 1326 1324 1324 1322 1321 1320 1319 1318 1318 1317 1317 1316 1315 1315 1314 1313 1312 1311 1311 1311 1312 1313 1314 1314 1314 1315 1315 1316 1317 1318 1319 1320 1321 1322 1324 1324 1325
1366 1364 1361 1360 1358 1356 1355 1353 1351 1351 1350 1349 1349 1347 1343 1342 1340 1335 1332 1332 1331 1329 1328 1327 1325 1323 1322 1320 1319 1318 1317 1316 1315 1314 1313 1313 1312 1312 1311 1311 1310 1309 1308 1308 1307 1307 1307 1307 1309 1309 1310 1311 1311 1311 1312 1313 1314 1315 1316 1317 1319 1319 1320
1365 1362 1359 1358 1356 1354 1352 1350 1349 1349 1349 1349 1350 1346 1341 1340 1339 1333 1330 1330 1329 1326 1325 1323 1321 1320 1318 1316 1315 1313 1312 1311 1310 1310 1309 1309 1308 1308 1307 1307 1306 1305 1305 1304 1303 1303 1302 1303 1303 1304 1305 1306 1306 1307 1308 1309 1309 1310 1311 1312 1313 1313 1315
1364 1361 1357 1356 1355 1353 1351 1349 1347 1347 1347 1348 1347 1342 1339 1339 1336 1331 1328 1328 1326 1323 1322 1320 1318 1316 1315 1313 1312 1310 1309 1308 1307 1306 1305 1305 1305 1304 1303 1303 1302 1301 1301 1300 1299 1299 1299 1299 1299 1299 1301 1301 1302 1303 1304 1304 1305 1306 1306 1306 1307 1308 1310
1361 1359 1356 1354 1352 1351 1349 1347 1346 1346 1346 1345 1343 1338 1336 1336 1334 1329 1326 1325 1323 1321 1319 1317 1315 1314 1312 1311 1310 1309 1308 1306 1305 1304 1303 1302 1301 1301 1301 1300 1299 1298 1297 1297 1296 1296 1295 1295 1295 1295 1296 1297 1297 1298 1299 1300 1301 1301 1302 1301 1302 1303 1305
1358 1356 1354 1352 1350 1349 1347 1345 1344 1344 1343 1342 1339 1335 1334 1333 1330 1327 1325 1323 1321 1319 1317 1315 1314 1312 1311 1310 1309 1308 1307 1305 1304 1303 1302 1300 1299 1299 1298 1297 1296 1296 1295 1294 1293 1292 1292 1292 1292 1291 1292 1292 1293 1293 1294 1295 1296 1296 1297 1298 1298 1299 1300
1354 1353 1352 1350 1349 1347 1346 1344 1342 1341 1340 1338 1336 1333 1331 1330 1327 1324 1322 1321 1319 1317 1315 1314 1313 1311 1310 1309 1308 1307 1306 1304 1303 1302 1301 1300 1298 1297 1296 1295 1294 1293 1292 1292 1291 1290 1289 1289 1288 1288 1288 1288 1289 1289 1289 1290 1291 1292 1293 1294 1294 1295 1296
1352 1351 1350 1348 1347 1345 1344 1342 1340 1339 1337 1335 1333 1332 1330 1328 1326 1324 1322 1320 1318 1316 1314 1313 1312 1311 1309 1308 1307 1306 1305 1303 1302 1301 1300 1299 1297 1296 1295 1294 1292 1291 1290 1289 1288 1288 1287 1286 1285 1285 1285 1285 1285 1285 1285 1285 1286 1287 1288 1289 1289 1290 1291
1350 1349 1348 1346 1345 1343 1341 1340 1338 1337 1335 1333 1331 1330 1328 1327 1325 1323 1321 1319 1317 1315 1314 1312 1311 1310 1309 1307 1306 1305 1304 1302 1301 1300 1299 1297 1296 1295 1293 1292 1291 1290 1289 1288 1287 1286 1285 1284 1283 1282 1282 1282 1281 1282 1282 1282 1282 1283 1284 1285 1285 1286 1287
1349 1347 1346 1345 1343 1342 1340 1338 1337 1335 1334 1332 1330 1328 1326 1325 1323 1321 1319 1317 1316 1315 1313 1312 1311 1309 1308 1307 1305 1304 1303 1301 1300 1299 1298 1296 1295 1293 1292 1291 1289 1288 1287 1286 1285 1284 1283 1282 1281 1280 1279 1279 1278 1278 1279 1279 1279 1279 1280 1280 1282 1283 1284